{"data":{"norad_id":69184,"epoch":"2026-09-19T22:10:27.933888Z","epoch_age_seconds":76783,"freshness":"FRESH","line1":"1 69184U 26114C   26262.92393442  .00011486  00000+0  35052-3 0  9993","line2":"2 69184  53.1576 116.7225 0000950  78.8387 281.2722 15.34401623 19357","mean_motion":15.34401623,"eccentricity":9.5e-5,"inclination_deg":53.1576,"raan_deg":116.7225,"arg_perigee_deg":78.8387,"mean_anomaly_deg":281.2722,"bstar":0.00035052,"rev_number":1935,"period_min":93.847658814683,"perigee_km":462.04853694878,"apogee_km":463.34829567788,"semimajor_km":6840.8354163133,"source":"CELESTRAK","updated_at":"2026-09-20T09:00:44.095789Z"}}